• In Czech Republic
  • List of Countries
  • For 7 days
  • Water Temperature
  • Satellite Maps
  • Weather Map
  • Weather Widgets
  • user-avatar
    Login

    Hourly Weather Thompson

    Today, 26 September, Wednesday

    Time Temperature Precipitation Wind Pressure Humidity
    00:00 0°C° 0 mm 1 mps 739 mmHg 92%
    01:00 0°C° 0 mm 1 mps 739 mmHg 92%
    02:00 0°C° 0 mm 1 mps 739 mmHg 92%
    03:00 0°C° 0 mm 1 mps 739 mmHg 92%
    04:00 0°C° 0 mm 1 mps 739 mmHg 92%
    05:00 0°C° 0 mm 1 mps 739 mmHg 91%
    06:00 +1°C° 0 mm 1 mps 739 mmHg 84%
    07:00 +3°C° 0 mm 1 mps 739 mmHg 77%
    08:00 +4°C° 0 mm 1 mps 738 mmHg 71%
    09:00 +5°C° 0 mm 1 mps 738 mmHg 64%
    10:00 +6°C° 0 mm 1 mps 738 mmHg 57%
    11:00 +8°C° 0 mm 1 mps 738 mmHg 50%
    12:00 +8°C° 0 mm 1 mps 738 mmHg 50%
    13:00 +7°C° 0 mm 1 mps 738 mmHg 51%
    14:00 +7°C° 0 mm 1 mps 738 mmHg 51%
    15:00 +6°C° 0 mm 1 mps 738 mmHg 56%
    16:00 +6°C° 0 mm 1 mps 738 mmHg 61%
    17:00 +5°C° 0 mm 1 mps 738 mmHg 65%
    18:00 +4°C° 0 mm 1 mps 739 mmHg 71%
    19:00 +2°C° 0 mm 1 mps 739 mmHg 76%
    20:00 +1°C° 0 mm 1 mps 739 mmHg 81%
    21:00 +1°C° 0 mm 1 mps 739 mmHg 83%
    22:00 0°C° 0 mm 1 mps 739 mmHg 85%
    23:00 0°C° 0 mm 1 mps 739 mmHg 87%

    Tomorrow, 27 September, Thursday

    Time Temperature Precipitation Wind Pressure Humidity
    00:00 0°C° 0 mm 1 mps 739 mmHg 86%
    01:00 0°C° 0 mm 1 mps 739 mmHg 86%
    02:00 0°C° 0 mm 1 mps 739 mmHg 85%
    03:00 0°C° 0 mm 1 mps 739 mmHg 84%
    04:00 0°C° 0 mm 1 mps 739 mmHg 84%
    05:00 0°C° 0 mm 1 mps 739 mmHg 83%
    06:00 -1°C° 0.1 mm 2 mps 740 mmHg 78%
    07:00 +1°C° 0.1 mm 2 mps 740 mmHg 74%
    08:00 +2°C° 0.1 mm 3 mps 740 mmHg 69%
    09:00 0°C° 0.3 mm 4 mps 741 mmHg 69%
    10:00 0°C° 0.3 mm 4 mps 742 mmHg 69%
    11:00 0°C° 0.3 mm 5 mps 742 mmHg 68%
    12:00 0°C° 0.1 mm 5 mps 742 mmHg 64%
    13:00 0°C° 0.1 mm 5 mps 743 mmHg 59%
    14:00 0°C° 0.1 mm 4 mps 743 mmHg 54%
    15:00 -1°C° 0 mm 4 mps 743 mmHg 54%
    16:00 -2°C° 0 mm 4 mps 744 mmHg 55%
    17:00 -2°C° 0 mm 3 mps 744 mmHg 55%
    18:00 -2°C° 0 mm 3 mps 745 mmHg 56%
    19:00 -2°C° 0 mm 3 mps 745 mmHg 58%
    20:00 -3°C° 0 mm 2 mps 745 mmHg 59%
    21:00 -3°C° 0 mm 2 mps 745 mmHg 59%
    22:00 -3°C° 0 mm 2 mps 745 mmHg 60%
    23:00 -3°C° 0 mm 2 mps 746 mmHg 60%

    Day after tomorrow, 28 September, Friday

    Time Temperature Precipitation Wind Pressure Humidity
    00:00 -4°C° 0 mm 2 mps 746 mmHg 61%
    01:00 -4°C° 0 mm 2 mps 745 mmHg 63%
    02:00 -5°C° 0 mm 2 mps 745 mmHg 64%
    03:00 -5°C° 0 mm 2 mps 745 mmHg 65%
    04:00 -5°C° 0 mm 2 mps 745 mmHg 66%
    05:00 -6°C° 0 mm 2 mps 745 mmHg 68%
    06:00 -4°C° 0 mm 2 mps 745 mmHg 63%
    07:00 -4°C° 0 mm 3 mps 745 mmHg 59%
    08:00 -1°C° 0 mm 3 mps 745 mmHg 55%
    09:00 -1°C° 0 mm 3 mps 744 mmHg 51%
    10:00 0°C° 0 mm 3 mps 744 mmHg 47%
    11:00 0°C° 0 mm 4 mps 744 mmHg 43%
    12:00 0°C° 0 mm 4 mps 744 mmHg 43%
    13:00 +1°C° 0 mm 4 mps 743 mmHg 44%
    14:00 +1°C° 0 mm 4 mps 743 mmHg 44%
    15:00 +1°C° 0 mm 3 mps 743 mmHg 49%
    16:00 +1°C° 0 mm 3 mps 743 mmHg 54%
    17:00 +1°C° 0 mm 2 mps 742 mmHg 59%
    18:00 -1°C° 0 mm 2 mps 742 mmHg 63%
    19:00 -1°C° 0 mm 2 mps 742 mmHg 66%
    20:00 -1°C° 0 mm 3 mps 742 mmHg 70%
    21:00 -2°C° 0 mm 3 mps 742 mmHg 74%
    22:00 -2°C° 0 mm 2 mps 742 mmHg 79%
    23:00 -3°C° 0 mm 2 mps 742 mmHg 83%

    29 September, Saturday

    Time Temperature Precipitation Wind Pressure Humidity
    00:00 -3°C° 0 mm 2 mps 742 mmHg 86%
    01:00 -3°C° 0 mm 2 mps 742 mmHg 88%
    02:00 -3°C° 0 mm 2 mps 742 mmHg 91%
    03:00 -4°C° 0 mm 2 mps 742 mmHg 92%
    04:00 -4°C° 0 mm 2 mps 742 mmHg 93%
    05:00 -4°C° 0 mm 2 mps 742 mmHg 94%
    06:00 -3°C° 0 mm 2 mps 742 mmHg 87%
    07:00 -1°C° 0 mm 2 mps 742 mmHg 80%
    08:00 +1°C° 0 mm 2 mps 742 mmHg 72%
    09:00 +2°C° 0.1 mm 2 mps 742 mmHg 67%
    10:00 +3°C° 0.1 mm 2 mps 742 mmHg 62%
    11:00 +3°C° 0.1 mm 3 mps 742 mmHg 57%
    12:00 +3°C° 0.2 mm 3 mps 742 mmHg 56%
    13:00 +3°C° 0.2 mm 3 mps 742 mmHg 55%
    14:00 +3°C° 0.2 mm 3 mps 742 mmHg 54%
    15:00 +2°C° 0.1 mm 3 mps 742 mmHg 60%
    16:00 +2°C° 0.1 mm 2 mps 742 mmHg 65%
    17:00 +1°C° 0.1 mm 2 mps 742 mmHg 71%
    18:00 -1°C° 0 mm 2 mps 743 mmHg 75%
    19:00 -3°C° 0 mm 2 mps 743 mmHg 79%
    20:00 -4°C° 0 mm 2 mps 743 mmHg 83%
    21:00 -4°C° 0 mm 2 mps 744 mmHg 84%
    22:00 -4°C° 0 mm 2 mps 744 mmHg 85%
    23:00 -5°C° 0 mm 2 mps 745 mmHg 86%

    30 September, Sunday

    Time Temperature Precipitation Wind Pressure Humidity
    00:00 -5°C° 0 mm 2 mps 745 mmHg 87%
    01:00 -5°C° 0 mm 2 mps 745 mmHg 89%
    02:00 -5°C° 0 mm 2 mps 746 mmHg 91%
    03:00 -5°C° 0 mm 2 mps 746 mmHg 89%
    04:00 -6°C° 0 mm 2 mps 747 mmHg 88%
    05:00 -6°C° 0 mm 2 mps 747 mmHg 87%
    06:00 -6°C° 0 mm 3 mps 747 mmHg 77%
    07:00 -5°C° 0 mm 3 mps 748 mmHg 67%
    08:00 -4°C° 0 mm 4 mps 748 mmHg 56%
    09:00 -3°C° 0 mm 4 mps 748 mmHg 52%
    10:00 -2°C° 0 mm 4 mps 748 mmHg 49%
    11:00 0°C° 0 mm 4 mps 748 mmHg 45%
    12:00 0°C° 0 mm 4 mps 748 mmHg 45%
    13:00 0°C° 0 mm 4 mps 748 mmHg 45%
    14:00 +1°C° 0 mm 4 mps 748 mmHg 46%
    15:00 +1°C° 0 mm 3 mps 748 mmHg 49%
    16:00 +1°C° 0 mm 2 mps 748 mmHg 53%
    17:00 -1°C° 0 mm 2 mps 748 mmHg 57%
    18:00 -1°C° 0 mm 2 mps 748 mmHg 60%
    19:00 -2°C° 0 mm 2 mps 748 mmHg 63%
    20:00 -2°C° 0 mm 2 mps 748 mmHg 66%
    21:00 -3°C° 0 mm 2 mps 748 mmHg 68%
    22:00 -3°C° 0 mm 2 mps 748 mmHg 70%
    23:00 -3°C° 0 mm 2 mps 747 mmHg 71%

    1 October, Monday

    Time Temperature Precipitation Wind Pressure Humidity
    00:00 -4°C° 0 mm 2 mps 747 mmHg 73%
    01:00 -4°C° 0 mm 2 mps 747 mmHg 75%
    02:00 -4°C° 0 mm 2 mps 747 mmHg 77%
    03:00 -4°C° 0 mm 2 mps 747 mmHg 78%
    04:00 -4°C° 0 mm 2 mps 747 mmHg 79%
    05:00 -4°C° 0 mm 2 mps 747 mmHg 81%
    06:00 -3°C° 0 mm 2 mps 747 mmHg 74%
    07:00 -2°C° 0 mm 2 mps 747 mmHg 68%
    08:00 -1°C° 0 mm 2 mps 747 mmHg 62%
    09:00 +2°C° 0 mm 2 mps 746 mmHg 55%
    10:00 +4°C° 0 mm 2 mps 746 mmHg 49%
    11:00 +6°C° 0 mm 2 mps 746 mmHg 43%
    12:00 +6°C° 0 mm 2 mps 745 mmHg 42%
    13:00 +6°C° 0 mm 2 mps 745 mmHg 41%
    14:00 +7°C° 0 mm 2 mps 745 mmHg 40%
    15:00 +6°C° 0 mm 1 mps 744 mmHg 47%
    16:00 +5°C° 0 mm 1 mps 744 mmHg 54%
    17:00 +3°C° 0 mm 1 mps 744 mmHg 61%
    18:00 +3°C° 0 mm 1 mps 744 mmHg 63%
    19:00 +3°C° 0 mm 1 mps 744 mmHg 65%
    20:00 +3°C° 0 mm 1 mps 744 mmHg 68%
    21:00 +1°C° 0.1 mm 2 mps 744 mmHg 71%
    22:00 +1°C° 0.1 mm 2 mps 743 mmHg 75%
    23:00 +1°C° 0.1 mm 2 mps 743 mmHg 79%
    Show more